RH
16 20 26 29 29 32 38 36 25 20 23 28 39 47 50 55 57 54 50 46 33 24 33 45 57 72 76 76 82 87 89 91 93 95 94 92 95 98 99 101 99 98 98 96 95 97 98 90 81 79 78 74 70 71 71 70 69 70 73 76 76 76 76
27 32 38 39 37 39 48 55 46 31 28 32 35 39 45 53 56 57 59 55 39 25 28 44 60 70 73 72 74 78 82 86 89 95 98 97 98 100 100 101 99 96 96 97 96 97 94 87 83 79 71 68 67 68 70 71 72 72 71 71 70 71 74
25 29 31 31 30 34 45 59 60 48 46 56 55 41 38 51 58 60 67 62 42 29 36 53 64 69 70 69 69 71 75 80 85 92 99 97 96 99 99 99 97 91 91 93 90 90 92 91 88 77 68 67 66 68 72 72 70 67 66 68 68 68 72
22 23 25 26 27 31 39 49 56 58 64 78 80 59 45 55 64 66 73 65 40 31 42 55 60 58 58 66 73 72 74 83 87 92 99 97 93 95 93 90 88 84 85 86 82 82 82 81 79 72 69 65 61 66 73 69 62 57 58 65 68 69 71
23 23 24 25 25 28 33 37 42 53 69 81 80 64 54 64 71 70 75 71 49 32 37 49 54 51 55 71 81 76 75 83 89 92 96 94 89 87 86 81 76 78 85 84 82 82 74 70 72 68 63 60 55 59 66 64 57 49 52 59 64 68 71
23 23 22 22 23 25 28 31 32 40 61 79 79 67 63 71 77 74 75 79 65 37 31 52 63 55 55 72 83 82 75 71 78 86 87 84 79 76 80 80 70 69 75 78 78 78 73 71 70 62 57 54 54 62 67 62 54 48 51 57 62 68 70
25 26 27 26 27 27 27 28 29 31 46 68 80 79 78 80 80 78 77 83 76 42 26 51 72 63 57 68 81 86 77 66 70 78 77 75 70 64 68 72 70 63 63 75 83 79 75 73 64 58 58 52 52 71 79 64 52 51 52 56 62 67 67
27 28 31 30 29 30 31 30 30 30 33 45 61 73 81 82 79 78 78 83 81 53 28 39 63 67 64 74 87 90 84 76 73 73 72 69 63 58 55 54 60 59 57 73 88 84 72 65 60 57 58 54 49 59 66 57 51 53 53 55 60 64 65
29 29 29 28 26 26 28 29 29 31 31 34 43 56 67 72 73 76 77 82 84 66 35 24 45 72 77 81 92 95 88 81 80 83 83 74 61 56 51 46 54 64 67 73 77 70 56 57 72 70 56 53 52 48 51 53 53 53 53 54 57 61 63
27 25 23 21 20 21 23 25 27 31 33 35 38 45 55 65 74 78 78 81 84 74 46 20 35 71 80 74 81 89 85 80 81 83 79 69 60 53 51 55 61 65 66 63 60 57 50 57 76 77 61 55 54 51 52 56 58 56 53 53 55 58 62
23 21 19 16 15 15 16 18 21 26 31 34 36 42 52 68 83 89 86 81 79 76 52 23 26 50 58 60 71 78 77 75 72 66 59 57 56 51 53 59 57 50 48 50 53 58 59 59 63 68 74 71 61 58 57 56 59 58 55 55 55 58 63
22 20 18 16 14 13 15 19 21 23 26 30 35 41 51 68 85 94 93 83 79 76 51 24 28 40 42 54 69 73 71 68 64 59 55 54 53 52 55 55 48 42 43 45 49 55 60 62 61 62 74 80 71 62 59 54 55 61 65 62 57 59 66
23 21 18 16 13 12 16 26 33 33 29 27 32 40 46 60 79 89 88 81 79 74 46 21 29 42 47 58 68 70 68 65 62 59 55 53 52 53 53 48 42 42 45 45 50 61 62 59 61 58 63 77 78 65 57 56 58 66 70 65 61 66 71
23 20 17 15 15 17 20 31 43 46 39 29 29 40 44 54 72 80 78 77 77 67 42 20 22 36 53 68 71 69 68 66 67 64 56 53 52 50 48 46 44 45 47 50 60 71 66 57 60 59 56 69 77 64 52 54 59 61 60 59 64 72 76
23 19 17 14 18 27 33 42 50 52 49 38 31 38 44 51 69 77 76 78 79 68 44 24 20 30 53 74 76 72 70 69 73 70 61 56 52 51 50 49 50 49 46 48 51 55 54 51 53 55 58 68 70 58 45 45 51 52 54 62 68 73 78
21 17 16 15 17 27 39 52 59 60 62 57 46 48 53 56 67 77 77 78 80 74 50 26 19 30 54 76 78 72 68 70 77 75 67 61 57 55 53 49 49 47 43 43 41 41 47 50 49 53 63 68 60 47 38 36 43 52 59 67 72 74 77
21 18 17 17 17 23 33 48 64 69 69 67 60 60 66 70 73 75 74 71 72 71 51 26 20 32 56 77 78 71 70 74 79 79 73 67 61 57 52 46 43 40 39 40 40 40 46 51 53 54 56 56 51 46 40 35 46 65 70 67 69 73 73
24 22 21 19 17 20 24 37 60 73 73 76 74 69 72 80 83 82 81 76 73 72 55 29 22 34 57 75 76 73 76 79 79 78 74 66 59 55 49 43 40 39 39 42 43 44 45 47 48 47 46 46 45 46 43 38 49 69 70 61 63 66 66
30 28 26 23 19 19 20 28 54 73 77 81 80 72 73 83 88 91 90 81 76 73 56 33 26 36 54 69 73 74 78 80 74 68 62 57 53 51 48 43 42 41 42 44 46 48 47 45 43 40 40 41 43 46 45 41 50 61 58 54 58 61 62
31 31 30 27 23 22 19 23 48 77 86 85 79 73 79 90 94 92 84 74 73 68 49 32 27 33 48 64 71 71 74 75 67 56 49 47 48 48 46 44 44 43 43 45 46 47 46 44 43 40 39 41 47 53 49 46 55 59 53 51 52 52 54
30 32 31 29 26 24 21 21 44 80 97 95 89 83 85 94 97 89 78 73 71 65 55 45 36 33 44 61 68 67 67 65 57 49 44 45 47 46 44 44 43 41 41 40 41 42 42 42 41 40 39 41 48 54 52 51 59 63 62 57 49 43 43
32 32 32 31 28 26 24 21 39 77 100 99 97 95 92 97 98 88 79 78 74 74 80 75 54 40 48 63 67 62 58 54 48 45 45 46 47 46 44 43 41 39 37 36 36 38 41 42 41 39 36 40 56 68 66 60 60 67 73 65 48 39 40
35 34 34 32 30 28 27 23 32 64 93 99 98 100 99 100 99 88 78 74 74 80 88 78 55 45 58 72 72 62 54 48 45 45 46 46 46 45 44 43 41 39 36 34 33 36 40 42 43 40 34 37 59 80 79 67 59 61 70 73 67 63 65
37 35 35 34 32 31 29 27 28 48 82 100 99 99 101 98 95 89 78 68 64 65 65 55 43 47 65 76 72 62 53 47 44 45 46 46 46 45 44 44 43 41 38 35 34 34 37 42 45 43 38 35 47 69 81 79 68 60 64 73 77 76 77
38 35 35 35 34 33 31 31 29 35 63 93 101 100 100 98 94 90 83 74 67 63 60 52 43 45 60 71 68 59 50 45 44 45 45 45 46 46 45 45 43 43 41 39 38 37 38 42 44 42 40 37 40 53 68 74 68 58 52 53 57 63 71
39 36 35 35 35 34 32 32 32 31 43 72 96 102 99 98 98 96 90 83 78 72 68 63 55 49 55 71 77 67 53 46 45 47 46 46 47 48 49 47 44 43 43 42 43 44 43 43 43 41 41 41 42 44 47 51 51 46 43 44 48 58 69
42 38 36 36 35 34 33 32 33 33 33 47 74 96 102 99 98 99 99 95 89 84 74 67 66 65 67 82 92 79 57 46 45 48 48 47 47 49 51 50 46 43 43 43 45 48 50 49 48 48 47 44 42 40 38 39 39 37 37 41 41 42 46
44 39 36 37 37 34 34 34 33 34 34 34 47 70 92 101 100 99 100 100 99 97 90 79 76 77 79 90 96 81 57 46 44 45 46 46 47 51 54 55 53 48 45 44 44 46 50 52 53 54 53 48 43 39 39 37 36 36 35 36 39 45 50
41 39 36 36 37 35 34 35 35 34 35 35 35 43 62 84 98 101 100 99 99 101 100 94 87 83 84 90 93 82 63 50 45 44 44 44 45 48 50 53 55 55 52 50 47 46 46 48 51 53 54 52 46 42 42 41 37 36 32 31 38 50 63
37 37 35 33 34 34 32 32 35 36 36 35 35 35 39 52 71 89 100 102 99 98 100 101 97 92 88 89 91 87 73 59 54 51 48 46 49 52 54 52 50 52 56 56 54 52 50 47 47 49 51 53 50 46 44 43 41 38 36 36 37 39 47
33 33 33 32 32 34 33 29 29 33 37 36 35 35 35 36 42 59 82 97 101 99 99 100 100 97 93 92 94 92 81 70 68 67 65 70 78 82 82 75 61 52 52 56 58 58 57 54 51 49 49 50 51 50 47 45 43 41 43 49 48 41 38
30 29 28 29 30 31 33 32 28 27 31 36 36 33 34 34 33 36 50 70 86 95 98 100 101 99 98 98 99 99 93 87 86 86 86 93 99 100 100 98 89 75 62 57 57 59 61 63 60 57 54 51 51 52 51 49 48 45 44 49 50 47 43
29 27 25 25 26 27 30 33 32 27 25 29 35 35 32 32 33 31 33 41 55 69 81 91 96 99 100 101 100 100 99 98 99 98 96 99 101 101 102 100 98 96 86 73 66 63 62 64 65 63 61 58 56 55 53 52 51 50 49 49 49 49 49
27 25 23 21 22 23 26 31 35 34 29 25 28 33 34 32 31 31 32 32 35 43 53 67 78 86 92 97 100 101 100 100 102 100 99 101 100 101 103 98 93 97 99 92 85 77 67 64 66 68 68 66 64 62 60 57 54 53 53 53 54 55 56
22 21 20 20 21 21 23 26 32 37 37 31 26 27 31 34 32 30 30 31 32 33 37 46 56 66 73 80 88 96 99 100 101 99 98 100 100 99 102 100 96 98 100 98 97 92 81 70 66 67 70 73 74 73 71 68 64 60 57 54 54 54 54
20 21 20 20 21 23 25 28 31 35 39 39 34 28 27 30 33 32 30 30 31 33 32 35 40 48 56 62 69 84 97 101 100 98 95 97 101 101 101 100 100 100 100 100 100 99 95 88 78 70 68 72 77 79 80 80 77 74 70 65 62 60 58
25 26 28 28 28 28 31 36 39 40 40 40 41 37 32 29 30 32 32 30 29 31 32 33 34 37 44 50 56 71 89 98 99 100 99 97 99 101 101 100 101 101 100 101 101 99 99 100 95 86 79 78 79 81 85 89 90 89 87 84 81 77 74
Wind_Speed
28 28 29 31 33 35 37 38 39 37 34 33 33 31 32 32 31 31 31 29 27 24 23 24 23 22 21 20 20 19 18 19 24 29 28 26 25 25 27 28 25 23 24 24 22 21 20 20 19 17 15 15 16 16 15 14 13 14 14 13 12 12 12
29 30 30 31 34 36 37 38 39 38 35 34 34 33 33 33 33 33 31 29 28 25 24 24 23 22 21 21 20 20 18 16 19 25 27 26 25 24 24 25 23 20 22 22 20 18 18 18 18 16 15 15 15 15 15 13 13 13 14 13 13 13 13
29 30 32 33 34 35 36 36 36 37 36 35 35 35 35 35 35 33 30 29 27 25 24 24 23 22 21 21 21 20 19 16 16 19 21 20 20 19 18 19 19 18 19 18 17 18 17 17 17 15 15 15 16 15 14 14 14 13 13 14 14 14 14
29 30 32 33 33 34 36 35 34 34 35 36 35 35 36 36 35 33 31 29 26 24 23 23 23 22 22 22 22 20 18 17 16 17 18 16 15 15 15 16 17 17 18 17 18 19 18 17 17 16 15 16 16 16 15 15 15 14 14 15 15 15 14
30 31 32 33 34 35 35 36 34 33 33 34 34 33 34 35 34 33 32 30 26 24 24 24 23 22 22 22 23 22 20 17 15 16 17 16 14 14 15 16 15 16 17 17 18 19 18 18 17 16 16 16 17 18 17 16 16 15 16 16 15 15 15
31 32 32 33 35 35 35 36 36 34 32 33 32 32 32 33 34 34 34 33 29 25 24 24 23 22 22 23 24 23 22 20 18 18 17 15 14 14 15 16 15 15 16 17 18 18 17 18 17 16 17 17 18 18 18 16 15 15 16 16 15 15 16
31 32 32 32 34 35 34 36 37 35 33 32 32 32 32 32 33 33 33 33 31 27 25 25 24 22 22 24 24 24 24 23 21 21 20 17 16 15 17 18 17 16 17 17 18 17 16 17 18 17 17 17 18 18 17 16 16 16 16 16 16 17 17
31 31 32 32 33 34 34 35 37 36 34 33 33 33 33 33 33 33 33 32 31 28 27 26 25 23 23 23 23 24 25 24 23 22 21 19 18 18 20 20 18 17 17 18 17 17 18 19 20 19 17 17 18 19 19 18 18 17 17 18 18 18 18
32 31 32 32 33 34 35 35 37 37 36 36 35 33 33 35 34 34 34 33 31 29 28 28 26 24 23 22 23 25 26 25 24 22 22 20 20 20 21 20 19 18 18 18 19 20 22 22 20 18 17 18 19 20 21 21 20 18 18 19 19 19 18
31 31 32 32 33 35 36 36 37 39 38 38 37 35 34 35 36 35 35 34 32 30 29 28 26 25 24 23 24 26 27 26 24 22 22 21 21 22 22 21 20 20 20 21 22 23 24 23 20 18 19 20 20 21 22 21 20 19 19 20 20 19 19
30 31 31 32 33 36 37 38 39 40 40 39 38 36 36 36 35 35 36 35 33 30 29 28 28 28 27 25 26 27 27 26 24 23 23 23 23 23 23 22 22 22 23 24 24 24 23 22 21 20 20 20 20 20 21 20 20 20 20 20 20 20 20
30 31 31 32 34 36 37 38 39 41 42 40 38 37 37 37 34 33 35 35 33 31 29 28 28 28 27 27 27 27 26 26 25 24 24 24 25 25 24 24 24 24 24 24 24 23 22 22 22 21 21 20 20 20 20 21 21 21 21 21 21 21 21
30 31 31 32 34 36 37 37 38 40 41 40 39 38 38 37 34 31 33 34 32 30 29 29 29 28 27 27 26 26 26 27 27 26 26 26 26 26 26 25 25 25 24 24 23 23 23 23 23 22 21 21 20 19 19 21 21 20 21 21 21 21 21
29 30 31 32 34 36 37 37 36 38 39 38 38 38 37 37 34 31 31 32 31 30 30 31 30 29 27 27 26 26 27 27 28 28 28 28 28 27 27 26 25 25 25 23 22 22 23 23 23 21 22 22 22 20 20 21 20 21 22 21 21 21 21
29 29 30 30 31 33 35 36 36 36 35 36 37 37 36 36 34 31 32 32 30 31 31 31 31 30 27 26 27 27 27 27 28 28 28 28 28 28 27 26 25 25 25 24 24 24 24 24 23 23 23 23 23 22 21 20 21 22 22 20 21 21 21
29 29 29 30 30 31 32 34 36 35 33 33 34 34 34 35 33 31 31 31 30 30 30 31 31 30 27 27 27 27 28 29 29 28 28 28 27 27 27 26 26 26 26 26 26 25 25 24 24 25 24 23 23 23 21 20 21 21 20 19 20 20 21
29 29 29 30 30 31 31 32 34 36 33 31 31 32 33 33 32 31 31 32 32 33 31 31 31 29 27 26 28 28 29 30 30 28 28 27 27 27 27 26 26 27 27 27 27 26 25 24 24 24 24 24 24 22 21 20 20 20 20 19 20 20 21
29 29 29 30 30 31 31 31 32 34 33 30 30 31 32 33 33 32 31 31 32 32 31 31 30 28 26 27 29 30 31 30 29 28 27 27 27 27 27 27 27 27 27 27 28 27 26 25 24 24 25 25 24 22 21 20 19 20 21 21 20 21 21
30 30 30 31 31 31 31 31 31 31 31 30 30 32 32 32 34 34 31 31 32 31 31 31 29 26 26 28 30 31 32 30 29 28 27 27 27 27 28 28 28 28 27 28 28 28 27 25 25 25 25 24 24 22 21 20 20 21 22 21 21 21 21
31 31 30 31 32 32 32 32 30 28 27 29 30 32 33 32 34 34 32 32 33 32 33 32 28 26 27 29 32 32 32 30 29 28 28 28 28 28 28 28 28 28 28 28 28 28 27 26 25 25 24 23 23 22 21 21 22 23 22 22 21 21 21
32 32 31 32 33 33 32 32 31 25 23 27 30 32 33 34 35 34 32 33 32 31 31 31 28 26 28 30 32 33 31 30 29 29 29 29 28 28 28 28 28 28 29 29 29 29 28 27 26 25 24 23 23 22 22 23 24 24 23 22 22 22 22
32 33 32 32 33 33 32 32 31 25 21 24 29 32 34 34 33 32 31 32 31 29 29 30 29 27 29 31 32 32 31 29 29 29 29 29 28 28 28 29 29 29 30 30 30 30 29 28 28 27 26 25 24 23 24 24 25 25 24 23 24 24 24
32 33 33 32 33 33 32 31 31 28 21 20 25 29 31 31 30 30 30 29 29 29 29 31 30 29 30 32 32 31 31 30 30 30 29 28 27 28 29 30 30 30 30 30 30 30 30 29 29 28 27 26 26 25 24 24 26 26 25 26 27 26 25
32 33 33 33 32 33 32 31 30 29 24 18 20 23 26 27 27 27 27 27 29 30 31 32 32 30 31 32 33 32 32 31 31 30 29 28 27 28 29 30 30 30 31 30 30 30 30 30 30 29 27 27 27 27 25 25 26 27 28 29 27 26 26
31 32 32 32 32 32 32 31 29 28 25 19 19 22 22 24 25 25 25 26 29 30 31 33 34 32 31 32 33 33 32 32 31 30 30 29 29 29 30 31 31 31 30 30 29 29 29 30 30 30 29 28 28 29 28 27 28 29 31 30 28 26 27
31 31 31 31 31 32 32 31 30 28 26 22 19 23 25 25 24 24 25 26 28 31 32 33 34 32 31 32 33 32 32 32 32 31 31 30 30 30 30 31 31 31 30 30 29 29 29 30 31 31 31 30 30 30 31 31 31 31 31 31 29 28 28
32 32 31 30 30 31 32 32 31 29 27 24 20 21 26 29 28 27 27 28 29 30 32 34 34 33 33 33 34 33 33 33 32 32 32 32 32 32 31 31 31 31 31 31 30 30 30 31 31 32 31 31 31 31 31 32 32 31 31 30 29 28 30
33 32 32 31 30 30 31 32 32 31 29 27 24 21 22 27 30 31 31 30 30 31 32 33 35 34 34 35 35 34 34 34 34 33 33 33 34 34 33 32 31 32 32 32 32 32 32 32 32 33 32 31 31 31 31 31 32 31 30 29 28 29 30
33 32 32 32 31 30 30 31 32 32 31 29 27 25 23 23 26 30 32 33 32 32 32 33 35 36 36 37 36 35 35 35 35 35 35 35 35 35 35 34 33 33 32 33 33 33 33 33 33 33 33 32 32 32 32 32 32 31 30 29 31 32 31
36 35 34 34 33 32 31 31 31 32 33 31 30 28 26 25 24 25 29 33 33 32 32 34 36 37 38 38 38 36 35 36 37 36 36 36 36 36 36 36 36 35 34 34 34 34 35 35 35 35 35 34 34 34 34 34 33 33 31 31 32 34 33
38 38 37 36 36 36 34 32 31 32 33 33 33 31 29 28 26 24 26 30 32 33 34 35 36 37 39 39 39 38 38 38 38 38 37 37 36 35 36 38 39 38 37 36 36 36 36 36 36 37 37 37 36 36 36 36 36 36 34 33 33 34 34
38 39 38 38 37 38 38 36 33 32 33 33 34 34 32 30 29 28 28 29 31 33 34 34 35 37 39 40 40 40 41 41 40 39 40 41 40 38 38 39 39 39 40 40 39 37 37 37 38 38 38 38 39 39 39 39 39 39 38 37 37 36 35
41 41 41 39 38 38 39 39 37 35 34 34 34 35 35 33 32 32 31 31 31 33 34 33 34 36 38 39 40 41 42 43 43 44 44 46 47 45 42 40 38 38 40 41 41 40 39 39 39 39 40 40 41 41 42 42 41 41 40 40 39 38 37
46 46 45 44 42 40 39 40 40 38 36 36 36 36 36 36 36 35 35 34 33 34 34 34 35 35 36 38 39 40 41 41 43 45 46 46 47 45 42 41 39 39 40 40 41 42 42 42 41 41 41 41 42 42 43 43 44 43 43 42 41 40 39
50 49 49 48 46 44 42 41 41 41 39 38 38 38 38 38 38 38 37 37 36 36 36 36 36 36 36 36 37 40 41 41 42 44 43 43 43 42 42 42 42 42 43 42 41 42 43 43 43 43 43 43 43 43 43 43 44 44 44 44 44 43 42
51 51 51 50 49 47 45 42 42 42 42 41 40 40 40 40 40 40 40 40 39 38 38 38 38 37 37 36 36 37 39 40 42 44 44 45 46 45 43 43 44 45 45 44 44 45 46 45 45 45 45 45 45 44 44 43 43 43 43 43 43 44 44
51 51 51 51 50 49 47 44 42 42 44 44 43 42 42 42 41 42 42 42 42 41 40 40 40 39 38 38 38 38 40 41 41 42 43 42 44 47 48 47 46 46 45 43 42 43 44 44 45 46 47 47 47 46 45 43 42 42 41 41 42 42 43
Wind_Direction
270 271 274 277 281 283 284 281 278 276 274 272 273 274 274 275 279 284 286 285 280 275 273 273 270 268 269 269 269 267 268 266 249 240 243 246 245 245 242 237 231 231 235 237 238 236 237 243 246 248 250 253 256 258 261 262 261 257 255 256 258 260 261
271 272 274 278 282 286 288 286 282 279 278 276 274 273 271 269 273 280 283 284 282 276 273 272 267 265 268 268 267 266 266 267 250 241 242 243 247 249 241 232 229 228 230 232 233 233 238 244 245 247 253 254 253 255 258 258 255 255 256 258 259 259 258
274 275 277 280 283 284 286 287 283 279 279 279 275 270 268 265 266 272 278 279 279 276 273 270 265 264 267 269 269 264 261 262 253 243 242 242 241 237 227 222 221 225 230 230 233 241 244 243 245 250 251 248 248 249 251 251 249 253 258 260 260 259 256
275 276 279 282 283 282 284 287 287 282 278 277 274 267 264 263 263 266 272 273 272 270 269 267 264 263 266 268 265 262 260 260 253 243 240 235 225 216 215 219 223 229 230 230 237 243 244 245 250 254 249 245 247 246 246 247 247 252 256 256 256 256 255
277 278 279 281 282 282 282 283 286 284 279 277 273 266 261 262 264 266 268 269 267 264 263 264 261 258 260 261 258 258 257 256 251 242 237 233 226 221 221 223 227 232 229 232 239 241 242 244 245 248 249 247 248 247 246 246 249 253 255 256 257 255 254
280 280 280 281 281 281 281 281 281 283 281 277 274 269 263 262 264 265 266 267 266 261 259 259 256 252 252 253 254 255 253 250 246 240 236 235 233 229 228 226 228 232 233 236 241 244 247 246 243 245 247 248 251 249 245 245 250 257 259 259 258 256 256
281 282 283 283 283 283 283 281 280 279 277 275 272 270 267 265 263 262 263 265 264 258 253 253 253 251 249 251 253 254 251 246 241 240 239 237 234 230 229 229 229 232 237 238 239 241 244 245 248 248 244 247 252 250 248 250 254 258 261 260 257 256 257
282 283 284 284 284 284 283 282 280 277 273 271 270 270 269 267 264 261 261 263 261 256 251 249 249 250 249 250 253 252 248 243 239 239 238 235 233 229 229 232 231 230 234 237 235 237 242 246 249 248 246 248 249 249 253 258 259 260 261 259 257 257 257
285 285 285 285 284 283 282 281 281 278 274 269 268 269 269 267 265 262 261 260 258 253 249 246 245 248 249 249 251 250 247 244 241 237 234 233 232 230 231 233 232 229 231 234 234 238 244 246 243 243 247 249 249 251 256 259 260 262 262 260 259 259 259
287 288 288 288 286 284 282 281 280 279 276 272 268 266 267 268 265 261 257 256 255 251 247 245 241 241 245 246 247 247 245 244 241 236 236 237 233 231 231 230 230 230 231 234 236 238 242 243 242 245 248 249 251 255 259 260 259 261 263 263 262 261 260
287 288 288 288 286 284 282 279 277 277 276 274 270 266 264 266 267 263 254 250 251 250 247 245 241 238 240 241 243 245 244 243 241 238 237 236 233 233 232 231 232 232 231 233 236 239 242 244 245 248 248 247 251 257 260 263 262 261 263 263 263 262 259
285 286 288 289 288 286 283 280 278 277 276 275 272 267 262 263 267 263 251 246 248 248 247 245 241 238 237 237 239 242 245 245 242 239 236 235 235 235 235 235 236 235 234 234 236 241 245 246 246 248 247 246 251 258 262 264 265 262 260 261 263 261 257
285 288 291 293 293 291 287 284 282 280 278 275 272 269 264 261 264 260 247 243 245 245 245 243 240 237 236 236 237 239 241 242 241 239 237 236 237 237 238 239 239 238 237 237 238 241 244 246 247 249 250 248 250 259 262 262 261 258 258 261 262 258 256
287 290 293 295 294 293 290 288 285 283 280 275 271 269 265 261 261 257 244 238 241 243 242 242 240 237 236 236 236 236 237 239 239 239 237 237 238 239 240 241 241 242 241 240 241 241 243 247 249 250 252 248 249 256 260 257 255 256 259 260 259 257 257
289 291 294 296 295 293 292 291 289 284 279 273 269 268 264 260 259 254 242 236 239 241 240 240 240 238 236 236 236 236 236 237 238 239 239 239 240 240 241 241 242 243 244 243 244 245 247 249 251 253 252 247 249 256 257 253 252 255 257 256 256 257 257
291 294 297 299 297 294 293 293 291 285 277 270 266 263 260 257 255 250 242 236 237 239 239 240 241 239 238 238 238 238 237 236 237 238 239 240 241 242 243 243 243 244 246 246 246 247 249 249 250 251 251 249 253 255 254 251 250 252 253 254 256 257 258
292 295 298 300 300 297 295 295 292 285 277 269 262 258 257 255 251 247 244 238 236 239 241 241 241 239 238 239 241 240 238 237 237 239 240 241 243 245 246 247 247 248 248 249 249 248 248 249 249 250 251 253 254 254 252 252 249 249 252 257 259 259 259
294 296 299 300 302 301 300 299 294 285 276 267 259 254 253 251 247 244 242 238 235 237 240 240 240 239 238 239 241 240 239 240 240 240 242 243 245 246 249 250 251 251 251 250 251 250 248 248 248 247 248 250 251 251 252 252 249 248 253 258 258 258 257
296 299 301 302 303 304 304 302 299 287 272 262 256 251 250 248 241 237 237 237 235 236 238 239 238 238 239 240 241 240 240 241 242 243 245 246 246 248 250 252 252 252 251 251 251 252 251 250 248 246 246 247 249 250 252 252 248 247 251 256 256 254 253
296 299 302 303 304 306 307 305 303 292 274 263 256 250 248 243 234 231 236 238 237 239 242 241 238 238 241 243 242 242 242 242 244 246 247 248 248 248 250 251 252 251 251 250 251 253 254 253 251 248 246 247 248 249 252 252 248 247 250 252 252 251 250
295 298 300 302 304 306 309 309 306 297 278 266 257 248 245 238 227 227 234 234 234 238 240 240 240 240 243 245 244 243 243 244 247 248 248 249 249 250 251 251 251 252 251 251 252 253 255 255 253 251 248 247 248 248 249 250 247 247 249 250 250 250 251
293 296 298 301 303 305 309 310 308 301 282 263 252 243 240 233 224 226 233 233 232 233 234 237 239 241 243 246 246 244 244 246 247 247 247 248 249 250 252 252 251 252 252 253 254 254 255 256 255 252 249 247 245 242 244 247 247 246 246 248 250 250 250
290 293 296 298 301 304 307 310 309 306 294 266 246 236 231 227 225 229 234 234 231 230 233 237 238 239 243 245 245 244 246 247 247 246 245 246 247 249 251 252 252 252 253 254 255 256 256 256 255 254 250 247 244 241 240 243 245 246 246 248 249 250 250
287 290 292 295 298 301 304 308 309 309 304 276 246 236 230 226 227 231 235 235 232 231 235 239 238 238 242 245 244 245 246 247 247 246 245 245 247 249 251 252 252 252 253 254 255 256 256 255 255 254 251 248 246 244 242 241 243 245 246 248 249 251 252
284 287 289 292 294 297 300 304 306 308 307 288 252 239 234 231 233 237 239 238 235 233 236 238 238 238 241 244 245 245 246 246 246 245 245 245 246 248 251 253 253 252 253 254 255 255 255 255 255 254 252 250 247 245 244 245 246 247 249 252 252 252 253
282 284 286 289 291 294 296 299 301 302 305 299 267 242 235 232 234 239 243 242 238 235 236 237 237 238 240 243 245 244 245 245 245 245 245 245 246 247 250 252 253 253 254 255 255 255 254 254 254 254 253 253 251 248 246 247 249 250 253 255 255 253 254
280 280 282 285 288 291 292 294 296 296 298 300 287 258 240 235 234 237 242 245 244 241 239 238 239 239 239 241 244 245 244 244 245 245 245 245 245 247 249 251 252 254 255 256 256 256 255 254 255 255 254 254 253 252 250 249 250 251 253 256 258 259 259
279 278 279 282 284 286 288 289 291 292 293 294 293 281 258 244 239 238 239 242 245 247 245 242 241 241 240 240 243 246 246 246 245 245 245 246 246 246 247 249 251 253 255 256 256 256 255 255 255 255 255 254 254 253 251 250 250 250 252 255 257 257 256
277 277 278 279 280 281 283 284 285 287 288 289 289 288 280 264 249 241 239 241 243 246 249 247 244 243 241 240 241 244 247 248 248 247 246 246 246 247 248 248 249 251 253 255 256 256 255 255 255 255 255 255 254 252 250 249 249 249 250 251 252 251 250
275 276 276 278 279 279 278 278 279 280 282 284 284 284 283 280 269 254 246 244 243 241 244 246 246 245 244 242 242 243 246 248 249 248 247 246 246 248 250 250 250 250 251 253 255 256 256 255 255 255 255 254 254 253 251 250 250 250 252 252 251 252 253
275 275 275 275 277 278 278 275 274 274 275 277 279 280 279 279 278 270 259 253 249 245 242 243 245 245 245 245 245 244 244 246 247 247 245 243 245 250 254 254 252 251 250 251 252 254 256 256 256 255 255 254 254 254 253 252 252 253 254 254 252 253 255
275 275 275 275 274 275 276 276 273 271 270 271 272 274 276 276 275 273 267 260 256 252 250 248 247 247 247 247 248 246 245 245 246 247 244 242 247 255 258 255 253 253 252 251 251 252 254 256 256 256 255 255 254 254 254 253 254 254 255 255 254 254 255
275 275 276 276 275 273 273 274 273 271 268 267 267 268 270 271 271 271 270 267 263 259 257 255 253 251 249 249 250 249 248 247 247 247 246 247 253 259 259 254 252 255 255 253 252 252 252 254 255 256 256 256 255 255 254 253 253 253 254 255 255 255 255
274 275 275 276 276 275 272 271 272 271 269 266 265 264 264 265 267 267 268 267 266 264 262 260 257 255 254 252 251 250 251 251 251 250 250 251 255 257 255 250 248 252 253 251 250 250 250 250 252 253 254 255 255 256 255 255 254 253 253 253 254 255 255
273 274 274 274 275 275 273 270 269 269 269 267 265 263 261 261 262 263 264 265 265 265 263 261 260 258 257 257 255 252 250 250 252 253 253 253 254 254 253 248 244 245 250 252 252 251 250 250 251 252 254 255 256 256 256 256 256 256 255 255 255 256 256
272 273 273 273 273 273 273 271 268 266 266 266 265 263 261 259 258 259 260 261 262 263 262 262 261 259 259 258 258 256 253 250 251 253 254 254 254 253 253 251 246 244 247 251 253 254 253 253 252 252 253 254 255 256 256 256 256 257 257 258 258 258 258
272 272 273 273 273 273 273 272 269 266 264 264 263 263 262 260 258 257 257 257 258 260 260 260 261 260 259 258 257 257 256 254 253 253 254 256 256 255 253 252 249 246 246 247 249 249 250 252 252 251 251 252 254 256 256 255 256 257 258 258 258 258 259